Regional Weather Roundup
Issued by NWS

Home | Current Version | Previous Version | Graphics & Text | Print | Product List | Glossary On
Versions: 1 2 3 4 5 6 7 8 9 10 11 12 13 14 15 16 17 18 19 20 21 22 23 24 25 26 27 28 29 30 31 32 33 34 35 36 37 38 39 40 41 42 43 44 45 46 47 48 49 50
000
ASUS43 KDTX 310410
RWRMI
MICHIGAN HOURLY REGIONAL WEATHER ROUNDUP
NATIONAL WEATHER SERVICE DETROIT/PONTIAC MI
1200 AM EDT TUE MAY 31 2016

NOTE: "FAIR" INDICATES FEW OR NO CLOUDS BELOW 12,000 FEET WITH NO
SIGNIFICANT WEATHER AND/OR OBSTRUCTION TO VISIBILITY.

MIZ047>049-052>055-059>063-066>070-074>076-081>083-310500-
SOUTHEAST LOWER MICHIGAN

CITY           SKY/WX    TMP DP  RH WIND       PRES   REMARKS
ADRIAN         CLEAR     67  53  61 CALM      30.00S
ALMA           CLEAR     56  51  82 CALM      30.01S
ANN ARBOR      CLEAR     69  52  54 N5        29.99S
BAD AXE        CLEAR     57  52  84 CALM      30.00S
CARO           CLEAR     58  51  79 N3        29.99F
DETROIT CITY   CLEAR     73  52  47 N3        29.97F
DETROIT        PTCLDY    70  54  56 NW6       29.98S
FLINT          CLEAR     68  51  54 CALM      30.00S
GROSSE ILE     CLEAR     66  61  82 CALM      29.97S
HILLSDALE      PTCLDY    63  54  71 CALM      30.01S
HOWELL         CLEAR     65  51  60 CALM      30.00S

CITY           SKY/WX    TMP DP  RH WIND       PRES   REMARKS
JACKSON        CLEAR     63  54  72 CALM      30.00F
LAMBERTVILLE   CLEAR     64  57  78 CALM      29.99S
LANSING        CLEAR     64  55  72 N3        30.00F
LAPEER         FAIR      67  51  57 NW5       30.00S
MASON          CLEAR     64  55  72 CALM      30.00F
MONROE         CLEAR     64  61  90 CALM      29.98S
PONTIAC        CLEAR     69  55  60 NW6       29.99S
PORT HOPE        N/A     59  57  93 CALM      29.98S
PORT HURON     PTCLDY    63  61  94 CALM      29.97F
TRI CITIES     CLEAR     66  48  52 N5        30.00F
MIDLAND        FAIR      56  50  81 CALM      29.99F
TROY           CLEAR     73  53  49 NW6       30.00S
SAGINAW HB     CLEAR     64  46  52 CALM      29.99F
$$
MIZ043>046-050>051-056>058-064>065-071>073-077>080-310500-
SOUTHWEST LOWER MICHIGAN

CITY           SKY/WX    TMP DP  RH WIND       PRES   REMARKS
BATTLE CREEK   CLOUDY    66  55  67 N3        30.01S
BENTON HARBOR  CLOUDY    64  57  78 NE3       30.00S
BIG RAPIDS     CLEAR     57  52  82 CALM      30.01S
COLDWATER      CLOUDY    62  54  75 CALM      30.00F
FREMONT        FAIR      59  54  83 CALM      30.01S
HOLLAND        CLEAR     61  56  83 CALM      30.01S
GRAND RAPIDS   CLEAR     67  55  65 N3        30.01S
IONIA          FAIR      65  52  61 CALM      30.00S
KALAMAZOO      MOCLDY    67  55  65 N6        30.01S
LUDINGTON      CLEAR     54  54  99 CALM      30.01S
MARSHALL       CLEAR     63  55  75 CALM      30.00S
MOUNT PLEASANT CLEAR     56  51  84 CALM      30.00S
MUSKEGON       CLEAR     60  56  86 CALM      30.01S
SOUTH HAVEN    CLOUDY    61  57  87 CALM      30.01S
$$
MIZ016>042-310500-
NORTHERN LOWER MICHIGAN

CITY           SKY/WX    TMP DP  RH WIND       PRES   REMARKS
ALPENA         CLEAR     57  51  80 CALM      30.00R
BEAVER ISLAND  CLEAR     53  51  92 CALM      30.02S
BELLAIRE       PTCLDY    55  52  89 CALM      30.01S
CADILLAC       CLEAR     53  50  89 CALM      30.02S
CHARLEVOIX     CLEAR     55  50  84 W5        30.04S
FRANKFORT      CLEAR     58  54  86 NW3       30.00S
GAYLORD        CLEAR     56  49  77 CALM      30.02R
GRAYLING       CLEAR     52  49  89 CALM      30.02S
HARBOR SPRINGS CLEAR     55  52  88 CALM      30.01R
HOUGHTON LAKE  CLEAR     54  52  93 CALM      30.02S
OSCODA         CLEAR     55  51  86 SW5       29.99S
PELLSTON       CLEAR     59  49  69 W10       30.01R
ROGERS CITY    CLEAR     58  50  76 SW6       29.99F
TRAVERSE CITY  CLEAR     62  53  72 CALM      29.98R
$$
MIZ007>008-015-310500-
EASTERN UPPER MICHIGAN

CITY           SKY/WX    TMP DP  RH WIND       PRES   REMARKS
KINROSS          N/A     55  50  82 NW7       29.99F
MACKINAC ISLAN CLEAR     56  51  81 W3        30.00S
NEWBERRY       CLEAR     51  47  87 W6        30.02R
S. S. MARIE    CLEAR     52  48  86 W7        29.98F
MUNISING         N/A     51  46  83 N9        30.06R
$$
MIZ004>006-011>014-085-310500-
CENTRAL UPPER MICHIGAN

CITY           SKY/WX    TMP DP  RH WIND       PRES   REMARKS
MANISTIQUE     CLEAR     54  50  85 NW6       30.03R
ESCANABA       CLEAR     59  48  67 N9G16     30.03R
MENOMINEE      CLEAR     61  55  82 N5        30.00R
SAWYER-GWINN   CLEAR     48  44  85 N10       30.07S
$$
MIZ001>003-009>011-084-310500-
WESTERN UPPER MICHIGAN

CITY           SKY/WX    TMP DP  RH WIND       PRES   REMARKS
IRON MOUNTAIN  CLEAR     60  48  64 E7        30.02R
HOUGHTON       CLEAR     49  42  77 E6        30.08R
COPPER HARBOR    N/A     46  43  89 N7        30.09R
IRONWOOD       CLOUDY    61  48  63 E8        29.99R
$$

ABBREVIATIONS USED IN REMARKS
   TC - TEMPERATURE IN CELSIUS
  WCI - WIND CHILL INDEX
   HX - HEAT INDEX
  VSB - VISIBILITY





USA.gov is the U.S. government's official web portal to all federal, state and local government web resources and services.